Weather History for Tacoma, WA

Change the Weather History Date:

Wednesday, January 30, 2013

  Actual Average Record
Temperature  
Mean Temperature 46 °F -  
Max Temperature 48 °F 46 °F 63 °F (1992)
Min Temperature 44 °F 33 °F 9 °F (1980)
Degree Days  
Heating Degree Days 19    
Moisture  
Dew Point 46 °F    
Average Humidity 99    
Maximum Humidity 100    
Minimum Humidity 93    
Precipitation  
Precipitation 0.15 in - - ()
Sea Level Pressure  
Sea Level Pressure 30.37 in    
Wind  
Wind Speed 10 mph (South)    
Max Wind Speed 13 mph    
Max Gust Speed -    
Visibility 10 miles    
Events Rain    
Averages and records for this station are not official NWS values.
T = Trace of Precipitation, MM = Missing Value Source: NWS Daily Summary

Daily Weather History Graph

Daily Weather History Graph

Search for Another Location

Airport:

Trip Planner

Search our weather history database for the weather conditions in past years. The results will help you decide how hot, cold, wet, or windy it might be!

Date:

Astronomy

Jan. 30, 2013 Rise Set
Actual Time 7:37 AM PST 5:09 PM PST
Civil Twilight 7:04 AM PST 5:42 PM PST
Nautical Twilight 6:27 AM PST 6:19 PM PST
Astronomical Twilight 5:51 AM PST 6:55 PM PST
Moon 9:35 PM PST (1/30) 8:49 AM PST (1/30)
Length of Visible Light 10h 38m
Length of Day
9h 32m
Waning Gibbous, 87% of the Moon is Illuminated
Jan 30
Waning Gibbous
Feb 3
Last Quarter
Feb 9
New
Feb 17
First Quarter
Feb 25
Full

Hourly Weather History & Observations

Time (PST) Temp. Windchill Dew Point Humidity Pressure Visibility Wind Dir Wind Speed Gust Speed Precip Events Conditions
12:12 AM 44.6 °F 38.4 °F 44.6 °F 100% 30.35 in 10.0 mi South 12.7 mph - N/A Rain Light Rain
12:23 AM 44.6 °F 38.8 °F 44.6 °F 100% 30.34 in 10.0 mi South 11.5 mph - N/A   Overcast
12:30 AM 44.6 °F 38.4 °F 44.6 °F 100% 30.34 in 10.0 mi South 12.7 mph - N/A Rain Light Rain
12:35 AM 44.6 °F 38.4 °F 44.6 °F 100% 30.34 in 10.0 mi South 12.7 mph - N/A Rain Light Rain
12:39 AM 44.6 °F 38.4 °F 44.6 °F 100% 30.35 in 10.0 mi South 12.7 mph - N/A   Overcast
12:46 AM 44.6 °F 38.8 °F 44.6 °F 100% 30.34 in 10.0 mi South 11.5 mph - N/A Rain Light Rain
12:58 AM 44.6 °F 38.8 °F 44.4 °F 99% 30.36 in 10.0 mi South 11.5 mph - 0.01 in Rain Light Rain
1:04 AM 44.6 °F 39.2 °F 44.6 °F 100% 30.34 in 10.0 mi South 10.4 mph - N/A   Overcast
1:19 AM 44.6 °F 38.8 °F 44.6 °F 100% 30.34 in 10.0 mi South 11.5 mph - N/A   Overcast
1:39 AM 44.6 °F 38.4 °F 44.6 °F 100% 30.33 in 10.0 mi South 12.7 mph - N/A   Overcast
1:58 AM 45.0 °F 38.9 °F 44.8 °F 99% 30.36 in 10.0 mi South 12.7 mph - 0.00 in   Overcast
2:58 AM 45.7 °F 40.6 °F 45.5 °F 99% 30.36 in 10.0 mi South 10.4 mph - N/A   Overcast
3:58 AM 46.2 °F 41.7 °F 46.0 °F 99% 30.37 in 10.0 mi South 9.2 mph - N/A   Overcast
4:08 AM 46.4 °F 41.5 °F 46.4 °F 100% 30.35 in 10.0 mi SSW 10.4 mph - N/A   Overcast
4:23 AM 46.4 °F 41.9 °F 46.4 °F 100% 30.36 in 10.0 mi South 9.2 mph - N/A   Overcast
4:26 AM 46.4 °F 41.5 °F 46.4 °F 100% 30.35 in 10.0 mi South 10.4 mph - N/A   Light Drizzle
4:28 AM 46.4 °F 41.5 °F 46.4 °F 100% 30.35 in 9.0 mi SSW 10.4 mph - N/A   Light Drizzle
4:58 AM 45.7 °F 41.5 °F 45.5 °F 99% 30.37 in 5.0 mi South 8.1 mph - 0.00 in   Light Drizzle
5:30 AM 46.4 °F 41.5 °F 46.4 °F 100% 30.34 in 7.0 mi South 10.4 mph - N/A   Overcast
5:40 AM 46.4 °F 42.4 °F 46.4 °F 100% 30.34 in 10.0 mi South 8.1 mph - N/A   Overcast
5:42 AM 46.4 °F 42.4 °F 46.4 °F 100% 30.35 in 10.0 mi South 8.1 mph - N/A   Overcast
5:47 AM 46.4 °F 41.9 °F 46.4 °F 100% 30.35 in 10.0 mi South 9.2 mph - N/A   Overcast
5:54 AM 46.4 °F 41.9 °F 46.4 °F 100% 30.35 in 10.0 mi SSW 9.2 mph - N/A Rain Light Rain
5:58 AM 46.2 °F 41.2 °F 46.0 °F 99% 30.37 in 10.0 mi South 10.4 mph - 0.01 in Rain Light Rain
6:04 AM 46.4 °F 41.5 °F 46.4 °F 100% 30.35 in 10.0 mi SSW 10.4 mph - N/A   Overcast
6:08 AM 46.4 °F 42.4 °F 46.4 °F 100% 30.35 in 10.0 mi South 8.1 mph - N/A Rain Light Rain
6:18 AM 46.4 °F 42.4 °F 46.4 °F 100% 30.36 in 10.0 mi SSW 8.1 mph - N/A Rain Light Rain
6:34 AM 46.4 °F 42.4 °F 46.4 °F 100% 30.36 in 8.0 mi South 8.1 mph - N/A Rain Light Rain
6:46 AM 46.4 °F 42.4 °F 44.6 °F 93% 30.36 in 10.0 mi South 8.1 mph - N/A   Overcast
6:58 AM 45.7 °F 41.5 °F 45.5 °F 99% 30.38 in 10.0 mi South 8.1 mph - 0.05 in   Overcast
6:59 AM 46.4 °F 42.4 °F 44.6 °F 93% 30.36 in 10.0 mi South 8.1 mph - N/A Rain Light Rain
7:09 AM 46.4 °F 41.9 °F 44.6 °F 93% 30.36 in 10.0 mi South 9.2 mph - N/A Rain Light Rain
7:19 AM 46.4 °F 41.5 °F 44.6 °F 93% 30.36 in 10.0 mi South 10.4 mph - N/A Rain Light Rain
7:29 AM 46.4 °F 41.9 °F 44.6 °F 93% 30.36 in 10.0 mi South 9.2 mph - N/A Rain Light Rain
7:39 AM 46.4 °F 41.5 °F 44.6 °F 93% 30.36 in 10.0 mi South 10.4 mph - N/A Rain Light Rain
7:58 AM 45.7 °F 40.6 °F 45.5 °F 99% 30.38 in 10.0 mi South 10.4 mph - 0.02 in Rain Light Rain
8:13 AM 46.4 °F 42.4 °F 46.4 °F 100% 30.37 in 10.0 mi South 8.1 mph - N/A Rain Light Rain
8:58 AM 46.0 °F 41.0 °F 45.9 °F 99% 30.39 in 10.0 mi South 10.4 mph - 0.02 in Rain Light Rain
9:11 AM 46.4 °F 41.5 °F 46.4 °F 100% 30.37 in 10.0 mi South 10.4 mph - N/A   Overcast
9:13 AM 46.4 °F 41.5 °F 46.4 °F 100% 30.37 in 10.0 mi South 10.4 mph - N/A Rain Light Rain
9:48 AM 46.4 °F 41.5 °F 46.4 °F 100% 30.38 in 10.0 mi SSW 10.4 mph - N/A Rain Light Rain
9:55 AM 46.4 °F 41.9 °F 46.4 °F 100% 30.38 in 10.0 mi South 9.2 mph - N/A   Overcast
9:58 AM 46.6 °F - 46.4 °F 99% 30.40 in 10.0 mi South 10.4 mph - 0.01 in   Overcast
10:08 AM 46.4 °F 41.1 °F 46.4 °F 100% 30.38 in 10.0 mi South 11.5 mph - N/A   Overcast
10:09 AM 46.4 °F 41.1 °F 46.4 °F 100% 30.38 in 10.0 mi South 11.5 mph - N/A Rain Light Rain
10:19 AM 46.4 °F 41.9 °F 46.4 °F 100% 30.38 in 10.0 mi South 9.2 mph - N/A Rain Light Rain
10:54 AM 46.4 °F 41.9 °F 46.4 °F 100% 30.39 in 10.0 mi South 9.2 mph - N/A Rain Light Rain
10:58 AM 46.9 °F - 46.6 °F 99% 30.41 in 10.0 mi South 9.2 mph - 0.02 in Rain Light Rain
10:59 AM 46.4 °F 41.1 °F 46.4 °F 100% 30.39 in 10.0 mi SSW 11.5 mph - N/A   Overcast
11:01 AM 46.4 °F 41.9 °F 46.4 °F 100% 30.39 in 10.0 mi South 9.2 mph - N/A Rain Light Rain
11:06 AM 46.4 °F 41.9 °F 46.4 °F 100% 30.39 in 10.0 mi South 9.2 mph - N/A Rain Light Rain
11:11 AM 46.4 °F 41.5 °F 46.4 °F 100% 30.39 in 10.0 mi South 10.4 mph - N/A Rain Light Rain
11:21 AM 46.4 °F 41.9 °F 46.4 °F 100% 30.39 in 10.0 mi South 9.2 mph - N/A Rain Light Rain
11:26 AM 46.4 °F 41.1 °F 46.4 °F 100% 30.39 in 10.0 mi South 11.5 mph - N/A   Overcast
11:51 AM 46.4 °F 41.1 °F 46.4 °F 100% 30.39 in 10.0 mi South 11.5 mph - N/A   Overcast
11:58 AM 47.1 °F - 46.9 °F 99% 30.41 in 10.0 mi South 9.2 mph - 0.00 in   Overcast
12:03 PM 46.4 °F 41.5 °F 46.4 °F 100% 30.39 in 10.0 mi South 10.4 mph - N/A   Overcast
12:22 PM 46.4 °F 41.9 °F 46.4 °F 100% 30.39 in 10.0 mi South 9.2 mph - N/A Rain Light Rain
12:38 PM 46.4 °F 41.1 °F 46.4 °F 100% 30.38 in 10.0 mi SSW 11.5 mph - N/A   Overcast
12:45 PM 48.2 °F - 46.4 °F 93% 30.38 in 10.0 mi SSW 9.2 mph - N/A Rain Light Rain
12:58 PM 47.3 °F - 47.1 °F 99% 30.40 in 10.0 mi South 8.1 mph - 0.00 in Rain Light Rain
12:59 PM 48.2 °F - 46.4 °F 93% 30.39 in 10.0 mi South 8.1 mph - N/A   Overcast
1:49 PM 48.2 °F - 48.2 °F 100% 30.38 in 10.0 mi SSW 5.8 mph - N/A   Overcast
1:58 PM 48.2 °F - 48.0 °F 99% 30.39 in 10.0 mi SSW 9.2 mph - 0.00 in   Overcast
2:33 PM 48.2 °F - 48.2 °F 100% 30.37 in 10.0 mi SW 5.8 mph - N/A   Overcast
2:58 PM 48.9 °F - 48.6 °F 99% 30.39 in 10.0 mi South 6.9 mph - N/A   Overcast
3:03 PM 48.2 °F - 48.2 °F 100% 30.37 in 10.0 mi South 6.9 mph - N/A   Overcast
3:08 PM 48.2 °F - 48.2 °F 100% 30.37 in 10.0 mi South 5.8 mph - N/A   Overcast
3:13 PM 48.2 °F - 48.2 °F 100% 30.37 in 10.0 mi South 6.9 mph - N/A   Overcast
3:28 PM 48.2 °F - 48.2 °F 100% 30.37 in 10.0 mi South 6.9 mph - N/A   Overcast
3:33 PM 48.2 °F - 48.2 °F 100% 30.37 in 10.0 mi South 5.8 mph - N/A   Overcast
3:58 PM 48.6 °F - 48.4 °F 99% 30.39 in 10.0 mi South 5.8 mph - N/A   Overcast
4:08 PM 48.2 °F - 48.2 °F 100% 30.37 in 10.0 mi South 5.8 mph - N/A   Overcast
4:18 PM 48.2 °F - 48.2 °F 100% 30.37 in 10.0 mi South 5.8 mph - N/A   Overcast
4:28 PM 48.2 °F - 48.2 °F 100% 30.37 in 10.0 mi South 5.8 mph - N/A   Overcast
4:33 PM 48.2 °F - 48.2 °F 100% 30.37 in 10.0 mi South 5.8 mph - N/A   Overcast
4:58 PM 48.0 °F - 47.7 °F 99% 30.39 in 10.0 mi South 6.9 mph - N/A   Overcast
5:23 PM 48.2 °F - 48.2 °F 100% 30.37 in 10.0 mi South 5.8 mph - N/A   Overcast
5:58 PM 47.7 °F - 47.3 °F 99% 30.39 in 10.0 mi South 6.9 mph - N/A   Overcast
6:08 PM 48.2 °F - 48.2 °F 100% 30.37 in 10.0 mi South 5.8 mph - N/A   Overcast
6:18 PM 48.2 °F - 46.4 °F 93% 30.37 in 10.0 mi South 6.9 mph - N/A   Overcast
6:28 PM 48.2 °F - 46.4 °F 93% 30.37 in 10.0 mi South 5.8 mph - N/A   Overcast
6:58 PM 47.3 °F - 47.1 °F 99% 30.39 in 10.0 mi South 5.8 mph - N/A   Overcast
7:53 PM 46.4 °F 42.9 °F 46.4 °F 100% 30.37 in 10.0 mi SSW 6.9 mph - N/A   Overcast
7:58 PM 47.1 °F - 46.9 °F 99% 30.39 in 10.0 mi South 5.8 mph - N/A   Overcast
8:01 PM 46.4 °F 43.5 °F 46.4 °F 100% 30.37 in 9.0 mi SSW 5.8 mph - N/A   Overcast
8:58 PM 46.8 °F - 46.6 °F 99% 30.39 in 10.0 mi SSW 5.8 mph - 0.01 in   Overcast
9:03 PM 46.4 °F 43.5 °F 46.4 °F 100% 30.38 in 10.0 mi SSW 5.8 mph - N/A   Overcast
9:13 PM 46.4 °F 42.4 °F 46.4 °F 100% 30.38 in 10.0 mi SSW 8.1 mph - N/A   Overcast
9:14 PM 46.4 °F 42.4 °F 46.4 °F 100% 30.38 in 10.0 mi SSW 8.1 mph - N/A   Overcast
9:19 PM 46.4 °F 43.5 °F 46.4 °F 100% 30.37 in 10.0 mi South 5.8 mph - N/A   Overcast
9:54 PM 46.4 °F 44.3 °F 46.4 °F 100% 30.37 in 10.0 mi South 4.6 mph - N/A   Overcast
9:58 PM 46.4 °F 44.3 °F 46.2 °F 99% 30.39 in 10.0 mi South 4.6 mph - N/A   Overcast
10:30 PM 46.4 °F 44.3 °F 46.4 °F 100% 30.38 in 10.0 mi South 4.6 mph - N/A Rain Light Rain
10:45 PM 46.4 °F 43.5 °F 46.4 °F 100% 30.37 in 10.0 mi South 5.8 mph - N/A Rain Light Rain
10:46 PM 46.4 °F 43.5 °F 46.4 °F 100% 30.37 in 10.0 mi South 5.8 mph - N/A   Overcast
10:58 PM 46.2 °F 43.3 °F 45.9 °F 99% 30.40 in 10.0 mi South 5.8 mph - 0.00 in   Overcast
11:33 PM 46.4 °F 43.5 °F 46.4 °F 100% 30.38 in 10.0 mi South 5.8 mph - N/A   Overcast
11:43 PM 46.4 °F 43.5 °F 46.4 °F 100% 30.38 in 7.0 mi SSW 5.8 mph - N/A   Overcast
11:44 PM 46.4 °F 44.3 °F 46.4 °F 100% 30.38 in 7.0 mi SSW 4.6 mph - N/A   Light Drizzle
11:46 PM 46.4 °F 43.5 °F 46.4 °F 100% 30.38 in 7.0 mi SSW 5.8 mph - N/A   Overcast
11:49 PM 46.4 °F 43.5 °F 46.4 °F 100% 30.38 in 6.0 mi SSW 5.8 mph - N/A   Light Drizzle
11:58 PM 46.4 °F 43.5 °F 46.2 °F 99% 30.40 in 6.0 mi SSW 5.8 mph - 0.00 in   Light Drizzle